Regional Weather Roundup
Issued by NWS

Home | Current Version | Previous Version | Graphics & Text | Print | Product List | Glossary On
Versions: 1 2 3 4 5 6 7 8 9 10 11 12 13 14 15 16 17 18 19 20 21 22 23 24 25 26 27 28 29 30 31 32 33 34 35 36 37 38 39 40 41 42 43 44 45 46 47 48 49 50
701
ASUS43 KOAX 220410
RWRNE

WEATHER ROUNDUP FOR NEBRASKA
NATIONAL WEATHER SERVICE OMAHA NE
1100 PM CDT SAT APR 21 2018

NOTES: SATELLITE DATA IS BEING USED TO AUGMENT CLOUD COVER ABOVE
       12000 FEET.
       "FAIR" INDICATES FEW OR NO CLOUDS BELOW 12,000 FEET WITH NO
       SIGNIFICANT WEATHER AND/OR OBSTRUCTIONS TO VISIBILITY.


NEZ001>004-019>022-054>056-220500-
NEBRASKA PANHANDLE

CITY           SKY/WX    TMP DP  RH WIND       PRES   REMARKS
SCOTTSBLUFF    CLOUDY    40  38  93 SE8       30.19S WCI  34
ALLIANCE       MOCLDY    37  36  96 SE10      30.19F WCI  30
CHADRON        CLEAR     37  34  89 SW5       30.17F WCI  33
GORDON         CLOUDY    38  36  91 S5        30.20S WCI  35
KIMBALL        MOCLDY    35  34  99 S8        30.19F WCI  28
SIDNEY         CLEAR     33  32  96 S7        30.20F WCI  27
$$

NEZ057>060-069>072-079>082-220500-
SOUTHWEST NEBRASKA

CITY           SKY/WX    TMP DP  RH WIND       PRES   REMARKS
NORTH PLATTE   CLOUDY    41  38  89 S3        30.26R
IMPERIAL       CLOUDY    40  40 100 CALM      30.25R
LEXINGTON      CLOUDY    42  40  91 N3        30.26S
MCCOOK         CLOUDY    41  40  96 CALM      30.25R FOG
OGALLALA       CLOUDY    41  40  95 CALM      30.24S FOG
$$

NEZ005>010-023>029-035>040-094-220500-
NORTH CENTRAL NEBRASKA

CITY           SKY/WX    TMP DP  RH WIND       PRES   REMARKS
VALENTINE      MOCLDY    41  37  86 SE6       30.25S
AINSWORTH      CLOUDY    39  37  90 SE3       30.26R
BROKEN BOW     CLOUDY    42  38  85 NE5       30.26R
O`NEILL        CLOUDY    44  38  80 CALM      30.28R
ORD            CLOUDY    42  37  82 E3        30.27R
THEDFORD       CLOUDY    42  37  84 SE5       30.26S
$$

NEZ041-046>049-061>064-073>077-083>087-220500-
SOUTH CENTRAL NEBRASKA

CITY           SKY/WX    TMP DP  RH WIND       PRES   REMARKS
GRAND ISLAND   CLOUDY    42  39  89 CALM      30.27F
AURORA         DRIZZLE   42  40  93 CALM      30.27S
HASTINGS       LGT RAIN  41  40  96 E10       30.27R
HEBRON         DRIZZLE   44  42  93 NW6       30.26R
HOLDREGE       CLOUDY    41  40  99 N3        30.25S
KEARNEY        CLOUDY    42  39  89 N7        30.27R
YORK           LGT RAIN  46  36  66 E3        30.28R
$$

NEZ011>018-030>034-042>045-220500-
NORTHEAST NEBRASKA

CITY           SKY/WX    TMP DP  RH WIND       PRES   REMARKS
NORFOLK        CLOUDY    45  35  68 CALM      30.26S
ALBION         CLOUDY    44  38  81 N5        30.27S
BLAIR          CLOUDY    50  29  45 E9        30.24S
COLUMBUS       CLOUDY    45  34  65 CALM      30.27R
FREMONT        CLOUDY    49  33  54 CALM      30.26S
TEKAMAH        CLOUDY    45  32  60 N8        30.26S
WAYNE          CLOUDY    45  35  69 CALM      30.27S
$$

NEZ050>053-065>068-078-088>093-220500-
SOUTHEAST NEBRASKA

CITY           SKY/WX    TMP DP  RH WIND       PRES   REMARKS
LINCOLN        CLOUDY    47  36  65 N5        30.25S
OMAHA EPPLEY   CLOUDY    53  27  36 E10       30.25S
BEATRICE       CLOUDY    48  39  69 N6        30.23R
FALLS CITY     MOCLDY    52  32  46 NE7       30.20R
NEBRASKA CITY  CLOUDY    51  30  43 NE9       30.23S
PLATTSMOUTH    CLOUDY    50  29  44 NE7       30.24S
$$

NEZ044-045-051>053-067-220500-
OMAHA AREA

CITY           SKY/WX    TMP DP  RH WIND       PRES   REMARKS
OMAHA EPPLEY   CLOUDY    53  27  36 E10       30.25S
BLAIR          CLOUDY    50  29  45 E9        30.24S
FREMONT        CLOUDY    49  33  54 CALM      30.26S
MILLARD        CLOUDY    54  29  38 E3        30.25R
OFFUTT AFB     CLOUDY    51  28  41 NE8       30.23F
PLATTSMOUTH    CLOUDY    50  29  44 NE7       30.24S
WAHOO          FAIR      46  31  56 N7        30.25R
$$




USA.gov is the U.S. government's official web portal to all federal, state and local government web resources and services.